Location: Balaclava NSW 2575, Australia
(34.4510°S, 150.4953°E)
Time: 17:27:45
(UTC+10:00)

Hubble Space Telescope - Visible Passes

Search period start: 11 August 2020 00:00
Search period end: 21 August 2020 00:00
Orbit: 536 x 540 km, 28.5° (Epoch: 10 August)

Date Brightness Start Highest point End Pass type
(mag) Time Alt. Az. Time Alt. Az. Time Alt. Az.
11 Aug 2.0 18:06:13 10° WNW 18:10:01 35° N 18:13:50 10° ENE visible
11 Aug 3.2 19:47:34 10° WNW 19:49:23 18° NW 19:49:23 18° NW visible
12 Aug 2.1 17:55:30 10° WNW 17:59:16 33° N 18:03:03 10° ENE visible
12 Aug 3.0 19:37:04 10° WNW 19:39:29 18° NNW 19:39:29 18° NNW visible
13 Aug 3.1 19:26:40 10° WNW 19:29:12 16° NNW 19:29:39 16° NNW visible
14 Aug 3.3 19:16:26 10° NW 19:18:23 13° NNW 19:19:54 11° N visible
15 Aug 3.6 19:06:52 10° NW 19:07:34 10° NNW 19:08:16 10° NNW visible
